Weather Roundup
Issued by NWS Springfield, MO

Home | Current Version | Previous Version | Text Only | Print | Product List | Glossary On
Versions: 1 2 3 4 5 6 7 8 9 10 11 12 13 14 15 16 17 18 19 20 21 22 23 24 25 26 27 28 29 30 31 32 33 34 35 36 37 38 39 40 41 42 43 44 45 46 47 48 49 50
000
NZUS99 KSGF 270859
HRRSGF

HOURLY WEATHER
NATIONAL WEATHER SERVICE SPRINGFIELD MO
400 AM CDT MON APR 27 2015

......SGF CWA......

CITY           SKY/WX    TMP DP  RH WIND       PRES   REMARKS
SPRINGFIELD    CLOUDY    49  36  61 E7        29.96S
JOPLIN         CLOUDY    50  39  66 NE5       29.97R
WEST PLAINS    CLOUDY    46  36  68 NE10      29.98R
ROLLA          CLOUDY    43  36  76 NE9       29.99F
OSAGE BEACH    CLOUDY    45  34  65 NE6       30.01S

......SURROUNDING SGF CWA......

CITY           SKY/WX    TMP DP  RH WIND       PRES   REMARKS
CHANUTE        CLOUDY    51  38  60 E6        30.00R
PARSONS        CLOUDY    52  41  66 VRB5      30.00R
COFFEYVILLE    CLOUDY    53  41  63 E9        29.97R
EMPORIA        CLOUDY    48  37  65 E10       30.01R
SILOAM SPRINGS CLOUDY    54  43  66 E5        29.96F
HARRISON AR    CLOUDY    49  42  77 E8        29.97R
NEAR YELLVILLE CLOUDY    50  41  71 NE3       29.96R

......KANSAS AND MISSOURI......

CITY           SKY/WX    TMP DP  RH WIND       PRES   REMARKS
KANSAS CTY INT MOCLDY    45  37  73 NE9       30.06R
DOWNTOWN KC    MOCLDY    46  36  68 NE5       30.05S
COLUMBIA       PTCLDY    43  36  76 NE7       30.04F
SEDALIA        CLOUDY    45  35  68 NE7       30.05S
ST JOSEPH      PTCLDY    45  33  63 E6        30.09R
ST LOUIS       NOT AVBL
SPIRIT OF STL  CLEAR     37  36  96 CALM      30.04F
KIRKSVILLE     CLEAR     36  34  92 NW3       30.09S
WICHITA        CLOUDY    53  39  59 NE10      29.99S
TOPEKA         CLOUDY    44  38  79 N6        30.06R
OLATHE         CLOUDY    46  36  68 NE7       30.03S

......TENNESSEE......

CITY           SKY/WX    TMP DP  RH WIND       PRES   REMARKS
MEMPHIS        CLOUDY    54  46  74 NE10      29.90S
NASHVILLE      CLEAR     46  39  76 CALM      29.92R

......ARKANSAS.......

CITY           SKY/WX    TMP DP  RH WIND       PRES   REMARKS
FAYETTEVILLE   LGT RAIN  52  50  93 CALM      29.96R
FT SMITH       LGT RAIN  56  49  77 E9        29.91F
LITTLE ROCK    CLOUDY    57  49  74 N5        29.96R

......OKLAHOMA.......

CITY           SKY/WX    TMP DP  RH WIND       PRES   REMARKS
TULSA          CLOUDY    55  51  86 NE6       29.90S
PONCA CITY     LGT RAIN  52  49  89 NE15      29.91F
MCALESTER      CLOUDY    59  57  93 E10G24    29.78F
OKLAHOMA CITY  CLOUDY    53  48  83 NE22G28   29.78F

......IOWA............

CITY           SKY/WX    TMP DP  RH WIND       PRES   REMARKS
DES MOINES     CLEAR     42  33  70 CALM      30.11R
QUAD CITIES    CLEAR     34  32  92 CALM      30.07S

......ILLINOIS........

CITY           SKY/WX    TMP DP  RH WIND       PRES   REMARKS
QUINCY         CLEAR     41  34  76 E5        30.07R
CHICAGO        CLEAR     39  30  70 N7        30.05F WCI  34



USA.gov is the U.S. government's official web portal to all federal, state and local government web resources and services.